Home   Weather   Marburg   Past weeks

Flag for Germany Past Weather in Marburg, Hesse, Germany — Yesterday and Last 2 Weeks

Now
43 °F

Passing clouds.


Feels Like: 38 °F
Forecast: 41 / 48 °F
Wind: 8 mph from Southwest

Location: Fritzlar Airport

Current Time: Feb 26, 2017 at 2:18:00 am

Latest Report: Feb 26, 2017 at 1:20 am


Visibility: N/A

Pressure: 29.98 "Hg

Humidity: 61%

Dew Point: 30 °F

Location of MarburgLocation

Past Weather in Marburg — Graph

°F

Marburg Temperature Yesterday

Maximum temperature yesterday: 45 °F (at 1:20 pm)
Minimum temperature yesterday: 25 °F (at 5:20 am)
Average temperature yesterday: 37 °F

High & Low Weather Summary for the Past Weeks

 TemperatureHumidityPressure
High52 °F (Feb 21, 1:20 pm)100% (Feb 16, 7:20 am)30.57 "Hg (Feb 16, 7:20 am)
Low23 °F (Feb 15, 4:20 am)40% (Feb 14, 4:20 pm)29.27 "Hg (Feb 23, 5:02 pm)
Average39 °F82%30.13 "Hg
* Reported Feb 11 12:20 am — Feb 26 12:20 am, Marburg, Weather by CustomWeather, © 2017

Note: Actual official high and low records may vary slightly from our data, if they occured in-between our weather recording intervals... More about our weather records

Advertising

Marburg Weather History for the Previous 24 Hours

Scroll right to see more
 ConditionsComfort  
Time TempWeatherWind HumidityBarometerVisibility
12:20 am
Sun, Feb 26
43 °FPassing clouds.13 mph57%29.98 "HgN/A
11:20 pm
Sat, Feb 25
45 °FPassing clouds.13 mph53%29.98 "HgN/A
10:20 pm45 °FPassing clouds.10 mph53%30.01 "HgN/A
9:20 pm45 °FPassing clouds.13 mph57%30.01 "HgN/A
8:20 pm45 °FPassing clouds.13 mph61%30.01 "HgN/A
7:20 pm43 °FPassing clouds.9 mph71%30.04 "HgN/A
6:20 pm45 °FPassing clouds.9 mph61%30.07 "HgN/A
5:20 pm45 °FPartly sunny.13 mph61%30.07 "HgN/A
4:20 pm45 °FPartly sunny.8 mph66%30.07 "HgN/A
3:20 pm45 °FPartly sunny.13 mph61%30.07 "HgN/A
2:20 pm45 °FBroken clouds.15 mph61%30.09 "HgN/A
1:20 pm45 °FPartly sunny.15 mph61%30.12 "HgN/A
12:20 pm43 °FBroken clouds.14 mph66%30.15 "HgN/A
12:10 pm41 °FBroken clouds.6 mph70%30.15 "HgN/A
11:20 am36 °FPartly sunny.8 mph87%30.18 "HgN/A
10:38 am34 °FPartly sunny.7 mph93%30.18 "Hg5 mi
10:20 am34 °FBroken clouds.9 mph93%30.18 "Hg5 mi
9:20 am32 °FPartly sunny.9 mph93%30.18 "Hg6 mi
8:20 am28 °FPartly sunny.1 mph93%30.18 "HgN/A
7:20 am27 °FScattered clouds.No wind93%30.15 "HgN/A
6:20 am25 °FPassing clouds.1 mph93%30.15 "HgN/A
5:20 am25 °FPassing clouds.1 mph93%30.15 "HgN/A
4:20 am28 °FPassing clouds.2 mph93%30.12 "HgN/A
3:20 am27 °FPassing clouds.1 mph93%30.12 "HgN/A
2:20 am28 °FChilly.5 mph93%30.12 "HgN/A
Weather by CustomWeather, © 2017

See weather overviewHow to use our weather pages